Location: Isle of Man Observatory
(54.1776°N, 4.6264°W)
Time: 14:32:02
(UTC+02:00)

ARIANE 6 FM1 Upper Stage - Pass Details

Date: 18 April 2026
Orbit: 526 x 601 km, 62.0° (Epoch: 19 May)

Event Time Altitude Azimuth Distance (km) Brightness Sun altitude
Rises 23:31:49 0° 287° (WNW) 2,702 7.2 -15.9°
Reaches altitude 10° 23:34:18 10° 301° (WNW) 1,799 6.4 -16.2°
Maximum altitude 23:37:45 26° 359° (N) 1,068 4.6 -16.5°
Drops below altitude 10° 23:41:10 10° 58° (ENE) 1,781 5.1 -16.8°
Enters shadow 23:42:54 - 68° (ENE) 2,396 5.7 -17.0°
